Preview of NWS' New Version of Forecast
This preview is not operational and should not be used for support decisions.

Regional Weather Roundup (RWR)

Issued by Gray - Portland, ME (GYX)

                            
000
ASUS41 KGYX 222305
RWRGYX
WEATHER ROUNDUP FOR MAINE AND NEW HAMPSHIRE
NATIONAL WEATHER SERVICE GRAY ME
700 PM EDT WED MAY 22 2019

MEZ002-005-006-010-012-015-018-020-021-024-026-027-029-230000-
MAINE
  
CITY           SKY/WX    TMP DP  RH WIND       PRES   REMARKS
PORTLAND       FAIR      59  36  42 S9        30.21R                  
SANFORD        FAIR      61  38  42 VRB5      30.22R                  
BAR HARBOR     FAIR      60  39  45 N7        30.20R                  
WISCASSET      FAIR      65  35  33 CALM      30.22R                  
ROCKLAND       FAIR      59  39  47 SE6       30.20R                  
FRYEBURG       FAIR      66  35  31 N6        30.20R                  
LEWISTONAUBURN PTSUNNY   65  38  36 NE7       30.20R                  
AUGUSTA        FAIR      64  36  35 N8        30.21R                  
WATERVILLE     FAIR      63  37  38 VRB5      30.18R                  
BANGOR         MOCLDY    62  38  40 VRB6      30.19S                  
GREENVILLE       N/A     58  35  42 N7        30.17R                  
MILLINOCKET    CLOUDY    62  38  40 NW7       30.18S                  
HOULTON        FAIR      54  38  54 N12       30.18R                  
PRESQUE ISLE   MOCLDY    54  39  57 NE10      30.20S                  
FRENCHVILLE    CLOUDY    57  36  45 N7        30.18S                  
CARIBOU        MOCLDY    55  39  54 N7        30.19R                  
$$

NHZ002-005-008-009-011-012-014-230000-
NEW HAMPSHIRE
  
CITY           SKY/WX    TMP DP  RH WIND       PRES   REMARKS
PORTSMOUTH     PTSUNNY   58  33  39 S6        30.21R                  
ROCHESTER      FAIR      61  36  39 S6        30.21R                  
NASHUA         FAIR      69  33  26 VRB3      30.20R                  
MANCHESTER     PTSUNNY   71  27  19 N9        30.18S                  
CONCORD        FAIR      68  31  25 NW10      30.20R                  
LACONIA        FAIR      68  32  26 NW6       30.20R                  
PLYMOUTH       FAIR      66  32  28 W5        30.20S                  
BERLIN         FAIR      62  34  35 VRB6      30.21S                  
WHITEFIELD     FAIR      61  33  35 NE8       30.21S                  
JAFFREY        FAIR      68  31  25 VRB3      30.21S                  
KEENE          FAIR      68  34  28 N5        30.20S                  
LEBANON        FAIR      68  36  30 N3        30.20R                  
MT WASHINGTON  PTSUNNY   34  30  86 NW20        N/A                   
$$

VTZ005-007-008-230000-
VERMONT
  
CITY           SKY/WX    TMP DP  RH WIND       PRES   REMARKS
ST JOHNSBURY     N/A     63  33  32 MISG      30.20S                  
MONTPELIER     FAIR      60  36  40 NW6       30.26S                  
BURLINGTON     PTSUNNY   63  36  36 NW5       30.23R                  
$$

MAZ007-012-024-CTZ003-RIZ002-NYZ038-NYZ072-230000-
SOUTHERN NEW ENGLAND AND NY
  
CITY           SKY/WX    TMP DP  RH WIND       PRES   REMARKS
BOSTON         PTSUNNY   60  39  45 E10       30.23S                  
WORCESTER      FAIR      67  32  27 NW6       30.21S                  
NANTUCKET      FAIR      53  40  61 S7        30.27R                  
PROVIDENCE     PTSUNNY   56  47  71 S15G24    30.23R                  
HARTFORD       FAIR      73  34  23 CALM      30.18S                  
ALBANY         PTSUNNY   67  38  34 E5        30.22S                  
NEW YORK CITY  PTSUNNY   76  35  22 S10       30.19S                  
$$

ANZ081-ANZ082-ANZ150-NHZ014-MEZ023>029-230000-
COASTAL MARINE OBSERVATIONS
  
STATION/POSITION TIME  TEMP    WIND        PRES    WAVE
                       AIR SEA DIR/SP/G            HT/PER
                 (UTC) (F)     (DEG/KT/KT) (MB)    (FT/S)
ISLE OF SHOALS   2200   54     180/ 15/ 15 1022.7R
JEFFREYS LEDGE   2238      48                N/A     1/ 6
GEORGES BANK BUO 2250   46 45  330/ 14/ 16 1022.8R   7/ 7
$$

.............KEY..............
   WCI - WIND CHILL
   TC  - TEMPERATURE IN CELSIUS
   VSB - VISIBILITY IN MILES
   HX  - HEAT INDEX
   FAIR- INDICATES FEW OR NO CLOUDS BELOW 12,000 FT, WITH NO 
         SIGNIFICANT WEATHER AND/OR OBSTRUCTIONS TO VISIBILITY.